| time (UTC) | temp F | wind direction | speed MPH | gust MPH | rain 1hr in | rain 24hr in | rain mn in | humidity % | barometer mb |
| 20260502225805 | 55 | 283 | 2.0 | 8.0 | 0.00 | 0.00 | 0.00 | 48 | 1013.1 |
| 20260502224304 | 56 | 336 | 4.0 | 8.0 | 0.00 | 0.00 | 0.00 | 47 | 1013.0 |
| 20260502223805 | 56 | 115 | 0.0 | 3.0 | 0.00 | 0.00 | 0.00 | 50 | 1013.0 |
| 20260502222305 | 56 | 355 | 2.0 | 7.0 | 0.00 | 0.00 | 0.00 | 47 | 1012.9 |
| 20260502221305 | 57 | 304 | 2.0 | 10.0 | 0.00 | 0.00 | 0.00 | 47 | 1013.0 |
| 20260502220804 | 57 | 335 | 3.0 | 10.0 | 0.00 | 0.00 | 0.00 | 46 | 1013.0 |
| 20260502215804 | 57 | 318 | 3.0 | 12.0 | 0.00 | 0.00 | 0.00 | 46 | 1012.9 |
| 20260502215305 | 58 | 327 | 3.0 | 12.0 | 0.00 | 0.00 | 0.00 | 44 | 1012.9 |
| 20260502214804 | 58 | 272 | 2.0 | 9.0 | 0.00 | 0.00 | 0.00 | 45 | 1012.9 |
| 20260502214305 | 58 | 247 | 2.0 | 6.0 | 0.00 | 0.00 | 0.00 | 46 | 1012.9 |
| 20260502213805 | 58 | 151 | 1.0 | 7.0 | 0.00 | 0.00 | 0.00 | 46 | 1012.9 |
| 20260502213304 | 58 | 341 | 2.0 | 10.0 | 0.00 | 0.00 | 0.00 | 44 | 1012.8 |
| 20260502212805 | 58 | 330 | 2.0 | 10.0 | 0.00 | 0.00 | 0.00 | 45 | 1012.7 |
| 20260502212305 | 58 | 239 | 5.0 | 14.0 | 0.00 | 0.00 | 0.00 | 43 | 1012.7 |
| 20260502210804 | 59 | 339 | 4.0 | 12.0 | 0.00 | 0.00 | 0.00 | 45 | 1012.6 |
| 20260502210305 | 59 | 271 | 4.0 | 12.0 | 0.00 | 0.00 | 0.00 | 41 | 1012.5 |
| 20260502205804 | 60 | 293 | 3.0 | 12.0 | 0.00 | 0.00 | 0.00 | 44 | 1012.5 |
| 20260502205305 | 60 | 300 | 6.0 | 12.0 | 0.00 | 0.00 | 0.00 | 42 | 1012.4 |
| 20260502204804 | 60 | 254 | 4.0 | 10.0 | 0.00 | 0.00 | 0.00 | 41 | 1012.4 |
| 20260502204304 | 61 | 296 | 4.0 | 9.0 | 0.00 | 0.00 | 0.00 | 39 | 1012.4 |
| 20260502203806 | 61 | 313 | 3.0 | 10.0 | 0.00 | 0.00 | 0.00 | 42 | 1012.3 |
| 20260502203304 | 61 | 320 | 5.0 | 10.0 | 0.00 | 0.00 | 0.00 | 41 | 1012.3 |
| 20260502202804 | 60 | 286 | 2.0 | 9.0 | 0.00 | 0.00 | 0.00 | 44 | 1012.4 |
| 20260502202305 | 60 | 333 | 4.0 | 9.0 | 0.00 | 0.00 | 0.00 | 43 | 1012.5 |
| 20260502194304 | 59 | 50 | 3.0 | 7.0 | 0.00 | 0.00 | 0.00 | 47 | 1012.7 |
| 20260502193804 | 59 | 57 | 2.0 | 7.0 | 0.00 | 0.00 | 0.00 | 44 | 1012.8 |
| 20260502191804 | 60 | 295 | 2.0 | 12.0 | 0.00 | 0.00 | 0.00 | 44 | 1013.3 |
| 20260502191305 | 59 | 214 | 4.0 | 12.0 | 0.00 | 0.00 | 0.00 | 44 | 1013.4 |
| 20260502190805 | 59 | 84 | 4.0 | 12.0 | 0.00 | 0.00 | 0.00 | 41 | 1013.6 |
| 20260502184304 | 58 | 13 | 3.0 | 5.0 | 0.00 | 0.00 | 0.00 | 44 | 1013.9 |
| 20260502183804 | 59 | 211 | 1.0 | 6.0 | 0.00 | 0.00 | 0.00 | 45 | 1014.0 |
| 20260502183305 | 58 | 267 | 2.0 | 6.0 | 0.00 | 0.00 | 0.00 | 47 | 1014.1 |
| 20260502182804 | 57 | 294 | 0.0 | 7.0 | 0.00 | 0.00 | 0.00 | 45 | 1014.2 |
| 20260502182305 | 58 | 318 | 2.0 | 7.0 | 0.00 | 0.00 | 0.00 | 43 | 1014.3 |
| 20260502181304 | 58 | 241 | 6.0 | 10.0 | 0.00 | 0.00 | 0.00 | 44 | 1014.3 |
| 20260502180806 | 58 | 31 | 2.0 | 9.0 | 0.00 | 0.00 | 0.00 | 45 | 1014.4 |
| 20260502164304 | 56 | 244 | 3.0 | 12.0 | 0.00 | 0.00 | 0.00 | 51 | 1014.9 |
| 20260502163804 | 56 | 264 | 4.0 | 12.0 | 0.00 | 0.00 | 0.00 | 51 | 1014.9 |
| 20260502162804 | 56 | 305 | 2.0 | 12.0 | 0.00 | 0.00 | 0.00 | 53 | 1014.9 |
| 20260502162305 | 56 | 288 | 5.0 | 12.0 | 0.00 | 0.00 | 0.00 | 52 | 1014.9 |
| 20260502161304 | 57 | 278 | 1.0 | 6.0 | 0.00 | 0.00 | 0.00 | 54 | 1015.0 |
| 20260502151804 | 55 | 292 | 4.0 | 12.0 | 0.00 | 0.00 | 0.00 | 53 | 1015.3 |
| 20260502151304 | 55 | 337 | 5.0 | 10.0 | 0.00 | 0.00 | 0.00 | 52 | 1015.2 |
| 20260502150304 | 54 | 55 | 1.0 | 12.0 | 0.00 | 0.00 | 0.00 | 58 | 1014.9 |
| 20260502123804 | 49 | 13 | 3.0 | 7.0 | 0.00 | 0.00 | 0.00 | 73 | 1014.8 |
| 20260502123304 | 49 | 290 | 1.0 | 8.0 | 0.00 | 0.00 | 0.00 | 72 | 1014.8 |
| 20260502122805 | 50 | 0 | 4.0 | 8.0 | 0.00 | 0.00 | 0.00 | 73 | 1014.9 |
| 20260502121306 | 49 | 278 | 2.0 | 13.0 | 0.00 | 0.00 | 0.00 | 73 | 1014.8 |
| 20260502120804 | 49 | 319 | 3.0 | 13.0 | 0.00 | 0.00 | 0.00 | 73 | 1014.6 |
| 20260502115805 | 49 | 354 | 2.0 | 7.0 | 0.00 | 0.00 | 0.00 | 73 | 1014.8 |
| 20260502115306 | 49 | 281 | 2.0 | 7.0 | 0.00 | 0.00 | 0.00 | 73 | 1014.9 |
| 20260502114804 | 48 | 240 | 3.0 | 7.0 | 0.00 | 0.00 | 0.00 | 74 | 1014.9 |
| 20260502113304 | 48 | 9 | 2.0 | 7.0 | 0.00 | 0.00 | 0.00 | 73 | 1014.7 |
| 20260502112805 | 48 | 312 | 3.0 | 8.0 | 0.00 | 0.00 | 0.00 | 73 | 1014.8 |
| 20260502112306 | 48 | 331 | 2.0 | 8.0 | 0.00 | 0.00 | 0.00 | 73 | 1014.8 |
| 20260502111304 | 48 | 275 | 2.0 | 8.0 | 0.00 | 0.00 | 0.00 | 73 | 1014.7 |
| 20260502110804 | 48 | 259 | 3.0 | 8.0 | 0.00 | 0.00 | 0.00 | 73 | 1014.6 |
| 20260502110304 | 48 | 236 | 2.0 | 9.0 | 0.00 | 0.00 | 0.00 | 73 | 1014.5 |
| 20260502105306 | 48 | 272 | 3.0 | 10.0 | 0.00 | 0.00 | 0.00 | 73 | 1014.4 |
| 20260502104306 | 48 | 337 | 3.0 | 12.0 | 0.00 | 0.00 | 0.00 | 74 | 1014.4 |
| 20260502103305 | 48 | 334 | 3.0 | 13.0 | 0.00 | 0.00 | 0.00 | 72 | 1014.2 |
| 20260502102306 | 48 | 276 | 3.0 | 13.0 | 0.00 | 0.00 | 0.00 | 72 | 1014.1 |
| 20260502101304 | 48 | 274 | 3.0 | 12.0 | 0.00 | 0.00 | 0.00 | 71 | 1013.9 |
| 20260502100804 | 48 | 288 | 4.0 | 13.0 | 0.00 | 0.00 | 0.00 | 72 | 1013.9 |
| 20260502100304 | 49 | 293 | 6.0 | 17.0 | 0.00 | 0.00 | 0.00 | 71 | 1013.8 |
| 20260502070804 | 52 | 282 | 2.0 | 7.0 | 0.00 | 0.00 | 0.00 | 80 | 1012.9 |
| 20260502070304 | 52 | 279 | 2.0 | 5.0 | 0.00 | 0.00 | 0.00 | 80 | 1013.0 |
| 20260502065804 | 52 | 309 | 1.0 | 7.0 | 0.00 | 0.00 | 0.00 | 80 | 1013.0 |
| 20260502065306 | 52 | 272 | 2.0 | 8.0 | 0.00 | 0.00 | 0.00 | 79 | 1013.1 |
| 20260502063304 | 52 | 259 | 1.0 | 6.0 | 0.00 | 0.00 | 0.00 | 80 | 1013.4 |
| 20260502061304 | 53 | 266 | 1.0 | 5.0 | 0.00 | 0.00 | 0.00 | 80 | 1013.7 |
| 20260502060804 | 53 | 265 | 2.0 | 5.0 | 0.00 | 0.00 | 0.00 | 79 | 1013.6 |
| 20260502060304 | 53 | 271 | 2.0 | 3.0 | 0.00 | 0.00 | 0.00 | 81 | 1013.6 |
| 20260502055306 | 53 | 317 | 2.0 | 3.0 | 0.00 | 0.00 | 0.00 | 86 | 1013.6 |
| 20260502054304 | 53 | 306 | 1.0 | 3.0 | 0.00 | 0.00 | 0.00 | 84 | 1013.7 |
| 20260502053306 | 53 | 265 | 1.0 | 7.0 | 0.00 | 0.00 | 0.00 | 83 | 1013.7 |
| 20260502051304 | 53 | 236 | 0.0 | 2.0 | 0.00 | 0.00 | 0.00 | 85 | 1013.8 |
| 20260502050804 | 53 | 236 | 0.0 | 1.0 | 0.00 | 0.00 | 0.00 | 85 | 1013.8 |
| 20260502045306 | 54 | 236 | 0.0 | 1.0 | 0.00 | 0.00 | 0.00 | 84 | 1013.8 |
| 20260502044304 | 54 | 236 | 0.0 | 2.0 | 0.00 | 0.00 | 0.00 | 83 | 1013.7 |
| 20260502043804 | 54 | 236 | 1.0 | 2.0 | 0.00 | 0.00 | 0.00 | 83 | 1013.7 |
| 20260502043304 | 54 | 236 | 0.0 | 3.0 | 0.00 | 0.00 | 0.00 | 82 | 1013.7 |
| 20260502041305 | 55 | 222 | 1.0 | 3.0 | 0.00 | 0.00 | 0.00 | 81 | 1013.5 |
| 20260502035804 | 56 | 205 | 1.0 | 6.0 | 0.00 | 0.00 | 0.00 | 78 | 1013.6 |
| 20260502035306 | 56 | 167 | 2.0 | 10.0 | 0.00 | 0.00 | 0.00 | 77 | 1013.6 |
| 20260502034804 | 56 | 165 | 5.0 | 10.0 | 0.00 | 0.00 | 0.00 | 76 | 1013.4 |
| 20260502033804 | 56 | 179 | 3.0 | 6.0 | 0.00 | 0.00 | 0.00 | 75 | 1013.3 |
| 20260502033305 | 56 | 170 | 4.0 | 6.0 | 0.00 | 0.00 | 0.00 | 74 | 1013.3 |
| 20260502032306 | 56 | 158 | 3.0 | 5.0 | 0.00 | 0.00 | 0.00 | 72 | 1013.3 |
| 20260502031804 | 56 | 152 | 2.0 | 6.0 | 0.00 | 0.00 | 0.00 | 70 | 1013.3 |
| 20260502031304 | 57 | 161 | 3.0 | 7.0 | 0.00 | 0.00 | 0.00 | 70 | 1013.1 |
| 20260502030804 | 57 | 156 | 2.0 | 9.0 | 0.00 | 0.00 | 0.00 | 69 | 1013.1 |
| 20260502030304 | 57 | 185 | 5.0 | 9.0 | 0.00 | 0.00 | 0.00 | 68 | 1013.1 |
| 20260502025804 | 57 | 150 | 3.0 | 8.0 | 0.00 | 0.00 | 0.00 | 67 | 1013.1 |
| 20260502022803 | 57 | 169 | 3.0 | 8.0 | 0.00 | 0.00 | 0.00 | 66 | 1013.2 |
| 20260502021304 | 57 | 128 | 3.0 | 7.0 | 0.00 | 0.00 | 0.00 | 66 | 1013.1 |
| 20260502015804 | 57 | 143 | 5.0 | 9.0 | 0.00 | 0.00 | 0.00 | 67 | 1013.2 |
| 20260502015306 | 57 | 147 | 2.0 | 7.0 | 0.00 | 0.00 | 0.00 | 67 | 1012.8 |
| 20260502014804 | 57 | 145 | 3.0 | 7.0 | 0.00 | 0.00 | 0.00 | 67 | 1013.0 |
| 20260502014304 | 57 | 150 | 3.0 | 8.0 | 0.00 | 0.00 | 0.00 | 67 | 1013.0 |
| 20260502013804 | 57 | 155 | 3.0 | 8.0 | 0.00 | 0.00 | 0.00 | 66 | 1013.1 |
| 20260502013304 | 56 | 153 | 4.0 | 8.0 | 0.00 | 0.00 | 0.00 | 66 | 1013.0 |
| 20260502012805 | 56 | 155 | 3.0 | 8.0 | 0.00 | 0.00 | 0.00 | 67 | 1012.9 |
| 20260502012306 | 56 | 145 | 2.0 | 5.0 | 0.00 | 0.00 | 0.00 | 67 | 1012.8 |
| 20260502011803 | 57 | 148 | 2.0 | 7.0 | 0.00 | 0.00 | 0.00 | 66 | 1012.7 |
| 20260502011304 | 57 | 168 | 3.0 | 7.0 | 0.00 | 0.00 | 0.00 | 65 | 1012.8 |
| 20260502010804 | 57 | 155 | 3.0 | 5.0 | 0.00 | 0.00 | 0.00 | 64 | 1012.7 |
| 20260502010305 | 57 | 178 | 1.0 | 6.0 | 0.00 | 0.00 | 0.00 | 66 | 1012.7 |
| 20260502005804 | 57 | 181 | 2.0 | 6.0 | 0.00 | 0.00 | 0.00 | 65 | 1012.7 |
| 20260502004304 | 57 | 153 | 2.0 | 7.0 | 0.00 | 0.00 | 0.00 | 64 | 1012.4 |
| 20260502002306 | 57 | 166 | 2.0 | 6.0 | 0.00 | 0.00 | 0.00 | 64 | 1012.2 |
| 20260502001304 | 57 | 158 | 3.0 | 9.0 | 0.00 | 0.00 | 0.00 | 62 | 1012.3 |
| 20260502000804 | 57 | 145 | 2.0 | 7.0 | 0.00 | 0.00 | 0.00 | 63 | 1012.1 |
| 20260501235804 | 58 | 130 | 2.0 | 5.0 | 0.00 | 0.00 | 0.00 | 61 | 1012.0 |
| 20260501235305 | 58 | 164 | 3.0 | 10.0 | 0.00 | 0.00 | 0.00 | 60 | 1012.0 |
| 20260501234804 | 59 | 116 | 2.0 | 10.0 | 0.00 | 0.00 | 0.00 | 58 | 1011.9 |
| 20260501233805 | 59 | 143 | 4.0 | 12.0 | 0.00 | 0.00 | 0.00 | 58 | 1012.0 |
| 20260501233304 | 60 | 158 | 3.0 | 9.0 | 0.00 | 0.00 | 0.00 | 58 | 1012.0 |
| 20260501231804 | 60 | 166 | 4.0 | 8.0 | 0.00 | 0.00 | 0.00 | 56 | 1012.0 |